Time,TemperatureF,DewpointF,PressureIn,WindDirection,WindDirectionDegrees,WindSpeedMPH,WindSpeedGustMPH,Humidity,HourlyPrecipIn,Conditions,Clouds,dailyrainin,SoftwareType,DateUTC
2013-01-24 00:00:00,39.2,31.6,30.37,North,350,1.0,1.0,74,0.00,,,0.00,Wunderground v.1.13,2013-01-24 05:00:00,
2013-01-24 00:01:00,39.2,31.6,30.37,North,350,0.0,1.0,74,0.00,,,0.00,Wunderground v.1.13,2013-01-24 05:01:00,
2013-01-24 00:03:00,39.2,31.6,30.37,North,350,0.0,1.0,74,0.00,,,0.00,Wunderground v.1.13,2013-01-24 05:03:00,
2013-01-24 00:04:00,39.2,31.9,30.37,North,350,1.0,1.0,75,0.00,,,0.00,Wunderground v.1.13,2013-01-24 05:04:00,
2013-01-24 00:09:00,39.1,31.8,30.37,North,355,0.0,2.0,75,0.00,,,0.00,Wunderground v.1.13,2013-01-24 05:09:00,
2013-01-24 00:14:00,39.1,31.8,30.38,NNW,339,0.0,2.0,75,0.00,,,0.00,Wunderground v.1.13,2013-01-24 05:14:00,
2013-01-24 00:20:00,39.2,31.9,30.38,North,355,0.0,1.0,75,0.00,,,0.00,Wunderground v.1.13,2013-01-24 05:20:00,
2013-01-24 00:25:00,39.3,32.0,30.37,NW,325,1.0,1.0,75,0.00,,,0.00,Wunderground v.1.13,2013-01-24 05:25:00,
2013-01-24 00:30:00,39.4,32.5,30.37,NW,314,1.0,1.0,76,0.00,,,0.00,Wunderground v.1.13,2013-01-24 05:30:00,
2013-01-24 00:36:00,39.4,32.5,30.38,WNW,295,0.0,1.0,76,0.00,,,0.00,Wunderground v.1.13,2013-01-24 05:36:00,
2013-01-24 00:41:00,39.4,32.5,30.37,North,5,5.0,5.0,76,0.00,,,0.00,Wunderground v.1.13,2013-01-24 05:41:00,
2013-01-24 00:46:00,39.5,32.6,30.37,North,5,0.0,1.0,76,0.00,,,0.00,Wunderground v.1.13,2013-01-24 05:46:00,
2013-01-24 00:51:00,39.5,32.9,30.37,North,360,0.0,2.0,77,0.00,,,0.00,Wunderground v.1.13,2013-01-24 05:51:00,
2013-01-24 00:56:00,39.6,33.0,30.37,North,360,3.0,3.0,77,0.00,,,0.00,Wunderground v.1.13,2013-01-24 05:56:00,
2013-01-24 01:02:00,39.7,33.1,30.37,North,360,0.0,1.0,77,0.00,,,0.00,Wunderground v.1.13,2013-01-24 06:02:00,
2013-01-24 01:07:00,39.8,33.2,30.37,North,360,0.0,1.0,77,0.00,,,0.00,Wunderground v.1.13,2013-01-24 06:07:00,
2013-01-24 01:12:00,39.9,33.3,30.37,NE,35,1.0,1.0,77,0.00,,,0.00,Wunderground v.1.13,2013-01-24 06:12:00,
2013-01-24 01:17:00,40.0,33.7,30.37,North,5,0.0,1.0,78,0.00,,,0.00,Wunderground v.1.13,2013-01-24 06:17:00,
2013-01-24 01:22:00,40.1,33.8,30.36,North,9,0.0,1.0,78,0.00,,,0.00,Wunderground v.1.13,2013-01-24 06:22:00,
2013-01-24 01:27:00,40.1,34.1,30.36,North,9,0.0,0.0,79,0.00,,,0.00,Wunderground v.1.13,2013-01-24 06:27:00,
2013-01-24 01:32:00,40.3,34.6,30.36,North,9,1.0,2.0,80,0.00,,,0.00,Wunderground v.1.13,2013-01-24 06:32:00,
2013-01-24 01:37:00,40.4,34.7,30.36,North,9,2.0,2.0,80,0.00,,,0.00,Wunderground v.1.13,2013-01-24 06:37:00,
2013-01-24 01:42:00,40.6,35.2,30.36,North,9,0.0,1.0,81,0.00,,,0.00,Wunderground v.1.13,2013-01-24 06:42:00,
2013-01-24 01:47:00,40.7,35.3,30.36,NNE,24,3.0,3.0,81,0.00,,,0.00,Wunderground v.1.13,2013-01-24 06:47:00,
2013-01-24 01:53:00,41.0,35.9,30.36,NNW,347,2.0,3.0,82,0.00,,,0.00,Wunderground v.1.13,2013-01-24 06:53:00,
2013-01-24 01:58:00,41.2,36.1,30.36,NNE,32,5.0,5.0,82,0.00,,,0.00,Wunderground v.1.13,2013-01-24 06:58:00,
2013-01-24 02:03:00,41.3,36.2,30.35,NNW,345,4.0,4.0,82,0.00,,,0.00,Wunderground v.1.13,2013-01-24 07:03:00,
2013-01-24 02:08:00,41.5,36.7,30.35,North,355,4.0,6.0,83,0.00,,,0.00,Wunderground v.1.13,2013-01-24 07:08:00,
2013-01-24 02:13:00,41.7,36.9,30.35,North,5,0.0,4.0,83,0.00,,,0.00,Wunderground v.1.13,2013-01-24 07:13:00,
2013-01-24 02:18:00,41.8,37.0,30.35,NNW,333,0.0,3.0,83,0.00,,,0.00,Wunderground v.1.13,2013-01-24 07:18:00,
2013-01-24 02:23:00,41.8,37.0,30.35,NNW,338,1.0,4.0,83,0.00,,,0.00,Wunderground v.1.13,2013-01-24 07:23:00,
2013-01-24 02:28:00,41.9,37.4,30.35,NNW,327,3.0,4.0,84,0.00,,,0.00,Wunderground v.1.13,2013-01-24 07:28:00,
2013-01-24 02:33:00,42.1,37.6,30.35,WNW,303,1.0,8.0,84,0.00,,,0.00,Wunderground v.1.13,2013-01-24 07:33:00,
2013-01-24 02:38:00,42.4,37.9,30.35,NW,306,4.0,6.0,84,0.00,,,0.00,Wunderground v.1.13,2013-01-24 07:38:00,
2013-01-24 02:43:00,42.6,37.8,30.35,NNW,346,3.0,5.0,83,0.00,,,0.00,Wunderground v.1.13,2013-01-24 07:43:00,
2013-01-24 02:48:00,42.9,38.1,30.35,NW,323,1.0,5.0,83,0.00,,,0.00,Wunderground v.1.13,2013-01-24 07:48:00,
2013-01-24 02:53:00,43.1,38.3,30.35,NNW,332,3.0,17.0,83,0.00,,,0.00,Wunderground v.1.13,2013-01-24 07:53:00,
2013-01-24 02:58:00,43.4,38.3,30.35,NNW,348,3.0,10.0,82,0.00,,,0.00,Wunderground v.1.13,2013-01-24 07:58:00,
2013-01-24 03:03:00,43.5,38.4,30.35,NNW,348,2.0,7.0,82,0.00,,,0.00,Wunderground v.1.13,2013-01-24 08:03:00,
2013-01-24 03:08:00,43.6,38.5,30.34,WNW,299,4.0,7.0,82,0.00,,,0.00,Wunderground v.1.13,2013-01-24 08:08:00,
2013-01-24 03:13:00,43.6,38.5,30.35,NNW,329,6.0,11.0,82,0.00,,,0.00,Wunderground v.1.13,2013-01-24 08:13:00,
2013-01-24 03:18:00,43.6,38.5,30.34,NNW,335,4.0,12.0,82,0.00,,,0.00,Wunderground v.1.13,2013-01-24 08:18:00,
2013-01-24 03:23:00,43.6,38.2,30.35,NW,323,6.0,8.0,81,0.00,,,0.00,Wunderground v.1.13,2013-01-24 08:23:00,
2013-01-24 03:28:00,43.7,38.3,30.34,NW,324,3.0,11.0,81,0.00,,,0.00,Wunderground v.1.13,2013-01-24 08:28:00,
2013-01-24 03:33:00,43.6,38.5,30.34,North,355,7.0,11.0,82,0.00,,,0.00,Wunderground v.1.13,2013-01-24 08:33:00,
2013-01-24 03:38:00,43.6,38.2,30.34,NW,318,6.0,8.0,81,0.00,,,0.00,Wunderground v.1.13,2013-01-24 08:38:00,
2013-01-24 03:43:00,43.5,38.4,30.33,North,5,4.0,8.0,82,0.00,,,0.00,Wunderground v.1.13,2013-01-24 08:43:00,
2013-01-24 03:48:00,43.4,38.3,30.33,NNE,14,3.0,8.0,82,0.00,,,0.00,Wunderground v.1.13,2013-01-24 08:48:00,
2013-01-24 03:53:00,43.3,38.2,30.33,West,279,3.0,6.0,82,0.00,,,0.00,Wunderground v.1.13,2013-01-24 08:53:00,
2013-01-24 03:58:00,43.2,37.8,30.33,North,350,3.0,8.0,81,0.00,,,0.00,Wunderground v.1.13,2013-01-24 08:58:00,
2013-01-24 04:03:00,43.2,37.8,30.33,NW,325,3.0,10.0,81,0.00,,,0.00,Wunderground v.1.13,2013-01-24 09:03:00,
2013-01-24 04:08:00,43.3,37.5,30.33,NW,305,2.0,13.0,80,0.00,,,0.00,Wunderground v.1.13,2013-01-24 09:08:00,
2013-01-24 04:13:00,43.2,37.1,30.33,North,355,3.0,11.0,79,0.00,,,0.00,Wunderground v.1.13,2013-01-24 09:13:00,
2013-01-24 04:18:00,43.2,36.8,30.32,NNW,339,5.0,15.0,78,0.00,,,0.00,Wunderground v.1.13,2013-01-24 09:18:00,
2013-01-24 04:23:00,43.1,36.4,30.33,North,5,6.0,11.0,77,0.00,,,0.00,Wunderground v.1.13,2013-01-24 09:23:00,
2013-01-24 04:28:00,43.2,36.1,30.33,West,275,5.0,14.0,76,0.00,,,0.00,Wunderground v.1.13,2013-01-24 09:28:00,
2013-01-24 04:34:00,43.1,36.0,30.33,NW,313,3.0,14.0,76,0.00,,,0.00,Wunderground v.1.13,2013-01-24 09:34:00,
2013-01-24 04:39:00,43.0,36.0,30.34,North,351,6.0,13.0,76,0.00,,,0.00,Wunderground v.1.13,2013-01-24 09:39:00,
2013-01-24 04:44:00,42.9,35.9,30.33,NNW,333,4.0,9.0,76,0.00,,,0.00,Wunderground v.1.13,2013-01-24 09:44:00,
2013-01-24 04:49:00,42.8,35.8,30.33,NNW,348,2.0,7.0,76,0.00,,,0.00,Wunderground v.1.13,2013-01-24 09:49:00,
2013-01-24 04:54:00,42.8,35.8,30.33,NNW,336,4.0,10.0,76,0.00,,,0.00,Wunderground v.1.13,2013-01-24 09:54:00,
2013-01-24 04:59:00,42.7,36.0,30.33,NNW,336,2.0,9.0,77,0.00,,,0.00,Wunderground v.1.13,2013-01-24 09:59:00,
2013-01-24 05:04:00,42.6,35.9,30.33,NW,322,2.0,7.0,77,0.00,,,0.00,Wunderground v.1.13,2013-01-24 10:04:00,
2013-01-24 05:09:00,42.4,36.0,30.32,NW,308,8.0,11.0,78,0.00,,,0.00,Wunderground v.1.13,2013-01-24 10:09:00,
2013-01-24 05:14:00,42.2,35.8,30.33,NNW,346,4.0,11.0,78,0.00,,,0.00,Wunderground v.1.13,2013-01-24 10:14:00,
2013-01-24 05:19:00,41.9,35.9,30.32,WNW,290,3.0,12.0,79,0.00,,,0.00,Wunderground v.1.13,2013-01-24 10:19:00,
2013-01-24 05:24:00,41.6,35.6,30.33,North,360,4.0,11.0,79,0.00,,,0.00,Wunderground v.1.13,2013-01-24 10:24:00,
2013-01-24 05:29:00,41.4,35.1,30.33,North,355,4.0,14.0,78,0.00,,,0.00,Wunderground v.1.13,2013-01-24 10:29:00,
2013-01-24 05:34:00,41.3,35.3,30.33,North,355,5.0,15.0,79,0.00,,,0.00,Wunderground v.1.13,2013-01-24 10:34:00,
2013-01-24 05:39:00,41.1,35.1,30.33,NW,323,6.0,13.0,79,0.00,,,0.00,Wunderground v.1.13,2013-01-24 10:39:00,
2013-01-24 05:44:00,40.9,34.9,30.34,North,355,5.0,11.0,79,0.00,,,0.00,Wunderground v.1.13,2013-01-24 10:44:00,
2013-01-24 05:49:00,40.8,34.5,30.33,North,351,4.0,11.0,78,0.00,,,0.00,Wunderground v.1.13,2013-01-24 10:49:00,
2013-01-24 05:54:00,40.7,34.4,30.34,NNW,340,8.0,12.0,78,0.00,,,0.00,Wunderground v.1.13,2013-01-24 10:54:00,
2013-01-24 05:59:00,40.6,34.3,30.34,NNW,333,4.0,11.0,78,0.00,,,0.00,Wunderground v.1.13,2013-01-24 10:59:00,
2013-01-24 06:04:00,40.5,34.5,30.34,North,355,1.0,10.0,79,0.00,,,0.00,Wunderground v.1.13,2013-01-24 11:04:00,
2013-01-24 06:09:00,40.5,34.8,30.34,North,5,8.0,11.0,80,0.00,,,0.00,Wunderground v.1.13,2013-01-24 11:09:00,
2013-01-24 06:14:00,40.3,34.6,30.34,NW,310,7.0,9.0,80,0.00,,,0.00,Wunderground v.1.13,2013-01-24 11:14:00,
2013-01-24 06:19:00,40.0,34.0,30.35,North,355,7.0,12.0,79,0.00,,,0.00,Wunderground v.1.13,2013-01-24 11:19:00,
2013-01-24 06:24:00,39.7,33.7,30.35,North,5,6.0,13.0,79,0.00,,,0.00,Wunderground v.1.13,2013-01-24 11:24:00,
2013-01-24 06:29:00,39.4,33.4,30.35,NNE,33,7.0,11.0,79,0.00,,,0.00,Wunderground v.1.13,2013-01-24 11:29:00,
2013-01-24 06:34:00,39.1,33.1,30.35,NW,323,4.0,10.0,79,0.00,,,0.00,Wunderground v.1.13,2013-01-24 11:34:00,
2013-01-24 06:39:00,38.8,32.8,30.35,West,281,8.0,10.0,79,0.00,,,0.00,Wunderground v.1.13,2013-01-24 11:39:00,
2013-01-24 06:44:00,38.6,32.6,30.36,NNW,329,3.0,10.0,79,0.00,,,0.00,Wunderground v.1.13,2013-01-24 11:44:00,
2013-01-24 06:49:00,38.5,32.6,30.36,NNW,340,4.0,10.0,79,0.00,,,0.00,Wunderground v.1.13,2013-01-24 11:49:00,
2013-01-24 06:54:00,38.3,32.4,30.36,NNW,328,7.0,12.0,79,0.00,,,0.00,Wunderground v.1.13,2013-01-24 11:54:00,
2013-01-24 06:59:00,38.2,32.3,30.36,WNW,285,8.0,9.0,79,0.00,,,0.00,Wunderground v.1.13,2013-01-24 11:59:00,
2013-01-24 07:04:00,37.9,32.0,30.35,NW,311,9.0,12.0,79,0.00,,,0.00,Wunderground v.1.13,2013-01-24 12:04:00,
2013-01-24 07:09:00,37.7,31.8,30.35,NNE,29,6.0,10.0,79,0.00,,,0.00,Wunderground v.1.13,2013-01-24 12:09:00,
2013-01-24 07:14:00,37.5,31.9,30.36,NW,318,8.0,10.0,80,0.00,,,0.00,Wunderground v.1.13,2013-01-24 12:14:00,
2013-01-24 07:19:00,37.3,31.7,30.36,NW,313,4.0,10.0,80,0.00,,,0.00,Wunderground v.1.13,2013-01-24 12:19:00,
2013-01-24 07:24:00,37.2,31.6,30.35,NNW,345,9.0,11.0,80,0.00,,,0.00,Wunderground v.1.13,2013-01-24 12:24:00,
2013-01-24 07:29:00,37.0,31.4,30.35,NW,314,7.0,10.0,80,0.00,,,0.00,Wunderground v.1.13,2013-01-24 12:29:00,
2013-01-24 07:34:00,36.9,31.6,30.35,North,350,3.0,7.0,81,0.00,,,0.00,Wunderground v.1.13,2013-01-24 12:34:00,
2013-01-24 07:39:00,36.8,31.5,30.35,NNW,342,5.0,9.0,81,0.00,,,0.00,Wunderground v.1.13,2013-01-24 12:39:00,
2013-01-24 07:44:00,36.7,31.4,30.35,NW,317,5.0,11.0,81,0.00,,,0.00,Wunderground v.1.13,2013-01-24 12:44:00,
2013-01-24 07:49:00,36.6,31.3,30.35,North,355,5.0,10.0,81,0.00,,,0.00,Wunderground v.1.13,2013-01-24 12:49:00,
2013-01-24 07:54:00,36.5,31.2,30.35,North,9,8.0,13.0,81,0.00,,,0.00,Wunderground v.1.13,2013-01-24 12:54:00,
2013-01-24 07:59:00,36.2,30.6,30.36,NNW,342,10.0,13.0,80,0.00,,,0.00,Wunderground v.1.13,2013-01-24 12:59:00,
2013-01-24 08:04:00,36.1,30.2,30.36,North,349,5.0,11.0,79,0.00,,,0.00,Wunderground v.1.13,2013-01-24 13:04:00,
2013-01-24 08:09:00,35.8,29.9,30.36,North,360,4.0,14.0,79,0.00,,,0.00,Wunderground v.1.13,2013-01-24 13:09:00,
2013-01-24 08:15:00,35.6,29.4,30.37,North,5,5.0,6.0,78,0.00,,,0.00,Wunderground v.1.13,2013-01-24 13:15:00,
2013-01-24 08:20:00,35.3,28.8,30.37,NW,306,5.0,6.0,77,0.00,,,0.00,Wunderground v.1.13,2013-01-24 13:20:00,
2013-01-24 08:25:00,35.1,28.3,30.37,North,350,7.0,7.0,76,0.00,,,0.00,Wunderground v.1.13,2013-01-24 13:25:00,
2013-01-24 08:30:00,35.1,28.0,30.38,NNW,343,7.0,9.0,75,0.00,,,0.00,Wunderground v.1.13,2013-01-24 13:30:00,
2013-01-24 08:35:00,35.0,27.9,30.38,NW,312,6.0,10.0,75,0.00,,,0.00,Wunderground v.1.13,2013-01-24 13:35:00,
2013-01-24 08:40:00,34.9,27.8,30.39,NNW,348,6.0,8.0,75,0.00,,,0.00,Wunderground v.1.13,2013-01-24 13:40:00,
2013-01-24 08:45:00,34.8,27.7,30.39,North,5,3.0,4.0,75,0.00,,,0.00,Wunderground v.1.13,2013-01-24 13:45:00,
2013-01-24 08:50:00,34.6,27.5,30.39,NW,324,4.0,7.0,75,0.00,,,0.00,Wunderground v.1.13,2013-01-24 13:50:00,
2013-01-24 08:55:00,34.5,27.4,30.39,WNW,298,5.0,7.0,75,0.00,,,0.00,Wunderground v.1.13,2013-01-24 13:55:00,
2013-01-24 09:00:00,34.4,27.3,30.40,NNW,336,4.0,12.0,75,0.00,,,0.00,Wunderground v.1.13,2013-01-24 14:00:00,
2013-01-24 09:05:00,34.4,27.3,30.40,NNW,341,4.0,5.0,75,0.00,,,0.00,Wunderground v.1.13,2013-01-24 14:05:00,
2013-01-24 09:10:00,34.2,26.8,30.40,NW,323,4.0,7.0,74,0.00,,,0.00,Wunderground v.1.13,2013-01-24 14:10:00,
2013-01-24 09:15:00,34.2,26.1,30.40,North,355,2.0,8.0,72,0.00,,,0.00,Wunderground v.1.13,2013-01-24 14:15:00,
2013-01-24 09:20:00,34.1,25.7,30.41,NW,319,3.0,6.0,71,0.00,,,0.00,Wunderground v.1.13,2013-01-24 14:20:00,
2013-01-24 09:25:00,34.0,24.5,30.41,NNW,341,3.0,7.0,68,0.00,,,0.00,Wunderground v.1.13,2013-01-24 14:25:00,
2013-01-24 09:30:00,33.9,23.7,30.41,NNW,340,5.0,5.0,66,0.00,,,0.00,Wunderground v.1.13,2013-01-24 14:30:00,
2013-01-24 09:35:00,33.8,22.5,30.41,NW,304,5.0,15.0,63,0.00,,,0.00,Wunderground v.1.13,2013-01-24 14:35:00,
2013-01-24 09:40:00,33.8,21.0,30.41,NW,323,3.0,8.0,59,0.00,,,0.00,Wunderground v.1.13,2013-01-24 14:40:00,
2013-01-24 09:45:00,33.8,20.6,30.41,NNW,345,1.0,5.0,58,0.00,,,0.00,Wunderground v.1.13,2013-01-24 14:45:00,
2013-01-24 09:50:00,34.0,19.5,30.41,NNW,342,4.0,11.0,55,0.00,,,0.00,Wunderground v.1.13,2013-01-24 14:50:00,
2013-01-24 09:55:00,34.1,19.2,30.41,NNW,331,1.0,6.0,54,0.00,,,0.00,Wunderground v.1.13,2013-01-24 14:55:00,
2013-01-24 10:01:00,34.1,19.2,30.42,NNW,330,5.0,5.0,54,0.00,,,0.00,Wunderground v.1.13,2013-01-24 15:01:00,
2013-01-24 10:06:00,34.3,18.5,30.43,NW,319,4.0,9.0,52,0.00,,,0.00,Wunderground v.1.13,2013-01-24 15:06:00,
2013-01-24 10:11:00,34.4,18.6,30.42,North,350,4.0,9.0,52,0.00,,,0.00,Wunderground v.1.13,2013-01-24 15:11:00,
2013-01-24 10:16:00,34.5,18.7,30.43,WNW,302,2.0,8.0,52,0.00,,,0.00,Wunderground v.1.13,2013-01-24 15:16:00,
2013-01-24 10:21:00,34.6,18.8,30.42,WNW,293,3.0,5.0,52,0.00,,,0.00,Wunderground v.1.13,2013-01-24 15:21:00,
2013-01-24 10:26:00,34.8,18.5,30.42,WNW,301,0.0,6.0,51,0.00,,,0.00,Wunderground v.1.13,2013-01-24 15:26:00,
2013-01-24 10:31:00,35.0,18.7,30.41,NW,317,3.0,5.0,51,0.00,,,0.00,Wunderground v.1.13,2013-01-24 15:31:00,
2013-01-24 10:36:00,34.9,18.1,30.42,NNW,343,3.0,6.0,50,0.00,,,0.00,Wunderground v.1.13,2013-01-24 15:36:00,
2013-01-24 10:41:00,35.0,18.2,30.42,NNW,347,6.0,9.0,50,0.00,,,0.00,Wunderground v.1.13,2013-01-24 15:41:00,
2013-01-24 10:46:00,35.0,18.2,30.42,NW,306,6.0,6.0,50,0.00,,,0.00,Wunderground v.1.13,2013-01-24 15:46:00,
2013-01-24 10:51:00,34.8,18.0,30.42,NW,313,10.0,10.0,50,0.00,,,0.00,Wunderground v.1.13,2013-01-24 15:51:00,
2013-01-24 10:56:00,34.8,18.5,30.43,NW,315,2.0,6.0,51,0.00,,,0.00,Wunderground v.1.13,2013-01-24 15:56:00,
2013-01-24 11:01:00,35.1,19.2,30.43,NW,314,2.0,6.0,52,0.00,,,0.00,Wunderground v.1.13,2013-01-24 16:01:00,
2013-01-24 11:06:00,35.4,19.5,30.44,NW,312,3.0,6.0,52,0.00,,,0.00,Wunderground v.1.13,2013-01-24 16:06:00,
2013-01-24 11:11:00,35.7,19.3,30.44,NW,307,3.0,6.0,51,0.00,,,0.00,Wunderground v.1.13,2013-01-24 16:11:00,
2013-01-24 11:16:00,36.1,19.7,30.44,NW,313,1.0,5.0,51,0.00,,,0.00,Wunderground v.1.13,2013-01-24 16:16:00,
2013-01-24 11:21:00,36.5,20.1,30.44,North,355,4.0,5.0,51,0.00,,,0.00,Wunderground v.1.13,2013-01-24 16:21:00,
2013-01-24 11:26:00,36.6,19.2,30.44,WNW,293,6.0,9.0,49,0.00,,,0.00,Wunderground v.1.13,2013-01-24 16:26:00,
2013-01-24 11:31:00,36.6,19.7,30.45,WNW,298,3.0,6.0,50,0.00,,,0.00,Wunderground v.1.13,2013-01-24 16:31:00,
2013-01-24 11:36:00,36.7,19.8,30.45,NNE,13,2.0,6.0,50,0.00,,,0.00,Wunderground v.1.13,2013-01-24 16:36:00,
2013-01-24 11:41:00,37.0,19.6,30.45,WNW,286,4.0,5.0,49,0.00,,,0.00,Wunderground v.1.13,2013-01-24 16:41:00,
2013-01-24 11:46:00,37.3,20.8,30.45,NW,308,4.0,7.0,51,0.00,,,0.00,Wunderground v.1.13,2013-01-24 16:46:00,
2013-01-24 11:51:00,37.3,20.3,30.45,North,355,4.0,9.0,50,0.00,,,0.00,Wunderground v.1.13,2013-01-24 16:51:00,
2013-01-24 11:56:00,37.3,19.9,30.45,NNW,338,0.0,11.0,49,0.00,,,0.00,Wunderground v.1.13,2013-01-24 16:56:00,
2013-01-24 12:01:00,37.5,20.1,30.45,NW,318,5.0,7.0,49,0.00,,,0.00,Wunderground v.1.13,2013-01-24 17:01:00,
2013-01-24 12:06:00,38.1,19.6,30.45,NW,309,5.0,8.0,47,0.00,,,0.00,Wunderground v.1.13,2013-01-24 17:06:00,
2013-01-24 12:11:00,38.2,19.7,30.45,NW,305,5.0,10.0,47,0.00,,,0.00,Wunderground v.1.13,2013-01-24 17:11:00,
2013-01-24 12:16:00,37.9,19.4,30.44,WNW,295,4.0,11.0,47,0.00,,,0.00,Wunderground v.1.13,2013-01-24 17:16:00,
2013-01-24 12:21:00,37.6,19.2,30.44,NNW,338,4.0,7.0,47,0.00,,,0.00,Wunderground v.1.13,2013-01-24 17:21:00,
2013-01-24 12:26:00,37.8,17.3,30.44,NW,323,6.0,14.0,43,0.00,,,0.00,Wunderground v.1.13,2013-01-24 17:26:00,
2013-01-24 12:31:00,38.3,17.7,30.44,WNW,294,5.0,10.0,43,0.00,,,0.00,Wunderground v.1.13,2013-01-24 17:31:00,
2013-01-24 12:36:00,38.0,16.9,30.44,West,277,2.0,14.0,42,0.00,,,0.00,Wunderground v.1.13,2013-01-24 17:36:00,
2013-01-24 12:41:00,37.8,17.8,30.44,WNW,299,4.0,9.0,44,0.00,,,0.00,Wunderground v.1.13,2013-01-24 17:41:00,
2013-01-24 12:46:00,38.5,19.0,30.44,WNW,299,9.0,11.0,45,0.00,,,0.00,Wunderground v.1.13,2013-01-24 17:46:00,
2013-01-24 12:51:00,38.2,17.6,30.43,North,5,7.0,9.0,43,0.00,,,0.00,Wunderground v.1.13,2013-01-24 17:51:00,
2013-01-24 12:57:00,38.3,17.7,30.43,NNW,331,2.0,11.0,43,0.00,,,0.00,Wunderground v.1.13,2013-01-24 17:57:00,
2013-01-24 13:02:00,38.6,15.1,30.43,NNW,329,5.0,11.0,38,0.00,,,0.00,Wunderground v.1.13,2013-01-24 18:02:00,
2013-01-24 13:07:00,38.4,15.6,30.43,NW,321,10.0,11.0,39,0.00,,,0.00,Wunderground v.1.13,2013-01-24 18:07:00,
2013-01-24 13:12:00,38.3,16.1,30.43,NNW,348,5.0,11.0,40,0.00,,,0.00,Wunderground v.1.13,2013-01-24 18:12:00,
2013-01-24 13:17:00,38.2,15.4,30.43,NNW,348,6.0,9.0,39,0.00,,,0.00,Wunderground v.1.13,2013-01-24 18:17:00,
2013-01-24 13:22:00,38.1,15.3,30.44,NNW,331,4.0,9.0,39,0.00,,,0.00,Wunderground v.1.13,2013-01-24 18:22:00,
2013-01-24 13:27:00,38.0,14.6,30.44,NW,320,6.0,9.0,38,0.00,,,0.00,Wunderground v.1.13,2013-01-24 18:27:00,
2013-01-24 13:32:00,38.0,15.2,30.44,North,360,5.0,8.0,39,0.00,,,0.00,Wunderground v.1.13,2013-01-24 18:32:00,
2013-01-24 13:37:00,38.2,13.6,30.44,North,5,4.0,9.0,36,0.00,,,0.00,Wunderground v.1.13,2013-01-24 18:37:00,
2013-01-24 13:42:00,38.5,15.1,30.44,NW,321,5.0,10.0,38,0.00,,,0.00,Wunderground v.1.13,2013-01-24 18:42:00,
2013-01-24 13:47:00,38.8,14.7,30.43,NNW,346,3.0,10.0,37,0.00,,,0.00,Wunderground v.1.13,2013-01-24 18:47:00,
2013-01-24 13:52:00,38.6,14.5,30.44,WSW,257,2.0,12.0,37,0.00,,,0.00,Wunderground v.1.13,2013-01-24 18:52:00,
2013-01-24 13:57:00,38.6,15.7,30.44,NW,306,2.0,6.0,39,0.00,,,0.00,Wunderground v.1.13,2013-01-24 18:57:00,
2013-01-24 14:02:00,39.0,14.9,30.45,North,5,3.0,6.0,37,0.00,,,0.00,Wunderground v.1.13,2013-01-24 19:02:00,
2013-01-24 14:07:00,38.9,14.2,30.44,WNW,300,1.0,9.0,36,0.00,,,0.00,Wunderground v.1.13,2013-01-24 19:07:00,
2013-01-24 14:12:00,38.8,13.4,30.43,NNW,344,2.0,11.0,35,0.00,,,0.00,Wunderground v.1.13,2013-01-24 19:12:00,
2013-01-24 14:17:00,38.8,15.3,30.44,West,281,2.0,4.0,38,0.00,,,0.00,Wunderground v.1.13,2013-01-24 19:17:00,
2013-01-24 14:22:00,38.8,14.1,30.43,WSW,246,1.0,4.0,36,0.00,,,0.00,Wunderground v.1.13,2013-01-24 19:22:00,
2013-01-24 14:27:00,38.7,14.6,30.44,NW,318,1.0,6.0,37,0.00,,,0.00,Wunderground v.1.13,2013-01-24 19:27:00,
2013-01-24 14:32:00,38.9,14.8,30.44,NW,306,2.0,7.0,37,0.00,,,0.00,Wunderground v.1.13,2013-01-24 19:32:00,
2013-01-24 14:37:00,38.8,14.1,30.44,WNW,283,2.0,8.0,36,0.00,,,0.00,Wunderground v.1.13,2013-01-24 19:37:00,
2013-01-24 14:42:00,38.8,13.4,30.44,NNW,333,1.0,5.0,35,0.00,,,0.00,Wunderground v.1.13,2013-01-24 19:42:00,
2013-01-24 14:47:00,38.6,13.3,30.44,WNW,299,4.0,7.0,35,0.00,,,0.00,Wunderground v.1.13,2013-01-24 19:47:00,
2013-01-24 14:52:00,38.6,13.3,30.45,West,275,2.0,7.0,35,0.00,,,0.00,Wunderground v.1.13,2013-01-24 19:52:00,
2013-01-24 14:57:00,38.8,12.8,30.45,NW,311,1.0,6.0,34,0.00,,,0.00,Wunderground v.1.13,2013-01-24 19:57:00,
2013-01-24 15:02:00,38.4,12.4,30.44,North,355,1.0,6.0,34,0.00,,,0.00,Wunderground v.1.13,2013-01-24 20:02:00,
2013-01-24 15:07:00,38.4,13.1,30.45,NW,317,1.0,5.0,35,0.00,,,0.00,Wunderground v.1.13,2013-01-24 20:07:00,
2013-01-24 15:12:00,38.4,11.1,30.45,North,5,1.0,4.0,32,0.00,,,0.00,Wunderground v.1.13,2013-01-24 20:12:00,
2013-01-24 15:17:00,38.3,11.0,30.45,NNW,333,2.0,6.0,32,0.00,,,0.00,Wunderground v.1.13,2013-01-24 20:17:00,
2013-01-24 15:23:00,38.1,10.8,30.45,WNW,301,3.0,7.0,32,0.00,,,0.00,Wunderground v.1.13,2013-01-24 20:23:00,
2013-01-24 15:28:00,37.9,11.3,30.45,NNW,327,4.0,6.0,33,0.00,,,0.00,Wunderground v.1.13,2013-01-24 20:28:00,
2013-01-24 15:33:00,37.9,10.6,30.45,NW,309,1.0,5.0,32,0.00,,,0.00,Wunderground v.1.13,2013-01-24 20:33:00,
2013-01-24 15:38:00,38.0,11.4,30.46,North,11,1.0,4.0,33,0.00,,,0.00,Wunderground v.1.13,2013-01-24 20:38:00,
2013-01-24 15:43:00,38.0,11.4,30.46,NNW,341,1.0,5.0,33,0.00,,,0.00,Wunderground v.1.13,2013-01-24 20:43:00,
2013-01-24 15:48:00,38.1,10.1,30.47,NNE,22,6.0,6.0,31,0.00,,,0.00,Wunderground v.1.13,2013-01-24 20:48:00,
2013-01-24 15:53:00,37.7,9.0,30.47,NNW,340,1.0,4.0,30,0.00,,,0.00,Wunderground v.1.13,2013-01-24 20:53:00,
2013-01-24 15:58:00,37.4,8.7,30.47,NNW,328,2.0,4.0,30,0.00,,,0.00,Wunderground v.1.13,2013-01-24 20:58:00,
2013-01-24 16:03:00,37.4,7.2,30.48,WNW,297,0.0,5.0,28,0.00,,,0.00,Wunderground v.1.13,2013-01-24 21:03:00,
2013-01-24 16:08:00,37.3,7.9,30.48,NNW,333,1.0,3.0,29,0.00,,,0.00,Wunderground v.1.13,2013-01-24 21:08:00,
2013-01-24 16:13:00,37.4,7.2,30.48,North,5,0.0,3.0,28,0.00,,,0.00,Wunderground v.1.13,2013-01-24 21:13:00,
2013-01-24 16:18:00,37.3,6.3,30.48,North,360,3.0,4.0,27,0.00,,,0.00,Wunderground v.1.13,2013-01-24 21:18:00,
2013-01-24 16:23:00,37.1,6.1,30.48,NNW,333,4.0,4.0,27,0.00,,,0.00,Wunderground v.1.13,2013-01-24 21:23:00,
2013-01-24 16:28:00,37.0,7.6,30.48,WNW,301,1.0,3.0,29,0.00,,,0.00,Wunderground v.1.13,2013-01-24 21:28:00,
2013-01-24 16:33:00,36.9,7.5,30.48,WNW,296,0.0,4.0,29,0.00,,,0.00,Wunderground v.1.13,2013-01-24 21:33:00,
2013-01-24 16:38:00,36.8,8.2,30.48,WNW,292,0.0,3.0,30,0.00,,,0.00,Wunderground v.1.13,2013-01-24 21:38:00,
2013-01-24 16:43:00,36.9,7.5,30.48,WNW,302,1.0,3.0,29,0.00,,,0.00,Wunderground v.1.13,2013-01-24 21:43:00,
2013-01-24 16:48:00,36.6,7.3,30.49,West,276,0.0,2.0,29,0.00,,,0.00,Wunderground v.1.13,2013-01-24 21:48:00,
2013-01-24 16:53:00,36.5,6.4,30.49,SW,224,3.0,3.0,28,0.00,,,0.00,Wunderground v.1.13,2013-01-24 21:53:00,
2013-01-24 16:58:00,36.6,7.3,30.49,West,269,0.0,2.0,29,0.00,,,0.00,Wunderground v.1.13,2013-01-24 21:58:00,
2013-01-24 17:03:00,36.5,5.6,30.49,WNW,292,0.0,2.0,27,0.00,,,0.00,Wunderground v.1.13,2013-01-24 22:03:00,
2013-01-24 17:08:00,36.1,5.3,30.49,WNW,292,0.0,3.0,27,0.00,,,0.00,Wunderground v.1.13,2013-01-24 22:08:00,
2013-01-24 17:13:00,35.9,5.9,30.49,WNW,292,0.0,2.0,28,0.00,,,0.00,Wunderground v.1.13,2013-01-24 22:13:00,
2013-01-24 17:18:00,35.9,5.9,30.49,WNW,296,0.0,2.0,28,0.00,,,0.00,Wunderground v.1.13,2013-01-24 22:18:00,
2013-01-24 17:23:00,35.6,4.8,30.49,NW,314,0.0,3.0,27,0.00,,,0.00,Wunderground v.1.13,2013-01-24 22:23:00,
2013-01-24 17:28:00,35.4,5.5,30.50,NW,314,1.0,2.0,28,0.00,,,0.00,Wunderground v.1.13,2013-01-24 22:28:00,
2013-01-24 17:33:00,35.1,6.0,30.50,NW,306,0.0,4.0,29,0.00,,,0.00,Wunderground v.1.13,2013-01-24 22:33:00,
2013-01-24 17:38:00,34.7,4.9,30.50,NW,306,0.0,2.0,28,0.00,,,0.00,Wunderground v.1.13,2013-01-24 22:38:00,
2013-01-24 17:43:00,34.4,5.4,30.50,NW,308,1.0,4.0,29,0.00,,,0.00,Wunderground v.1.13,2013-01-24 22:43:00,
2013-01-24 17:48:00,34.2,5.9,30.50,NW,309,0.0,2.0,30,0.00,,,0.00,Wunderground v.1.13,2013-01-24 22:48:00,
2013-01-24 17:53:00,33.9,6.4,30.50,WNW,286,0.0,4.0,31,0.00,,,0.00,Wunderground v.1.13,2013-01-24 22:53:00,
2013-01-24 17:58:00,33.7,6.2,30.50,WNW,288,0.0,3.0,31,0.00,,,0.00,Wunderground v.1.13,2013-01-24 22:58:00,
2013-01-24 18:03:00,33.4,6.7,30.50,North,355,0.0,3.0,32,0.00,,,0.00,Wunderground v.1.13,2013-01-24 23:03:00,
2013-01-24 18:08:00,33.2,7.2,30.50,NW,321,0.0,1.0,33,0.00,,,0.00,Wunderground v.1.13,2013-01-24 23:08:00,
2013-01-24 18:13:00,33.0,7.0,30.50,NNW,329,0.0,2.0,33,0.00,,,0.00,Wunderground v.1.13,2013-01-24 23:13:00,
2013-01-24 18:19:00,32.8,8.1,30.50,NNW,329,0.0,1.0,35,0.00,,,0.00,Wunderground v.1.13,2013-01-24 23:19:00,
2013-01-24 18:24:00,32.5,8.5,30.51,NNW,329,0.0,2.0,36,0.00,,,0.00,Wunderground v.1.13,2013-01-24 23:24:00,
2013-01-24 18:29:00,32.3,8.3,30.51,NNW,336,0.0,2.0,36,0.00,,,0.00,Wunderground v.1.13,2013-01-24 23:29:00,
2013-01-24 18:34:00,32.1,8.7,30.52,NNW,336,0.0,1.0,37,0.00,,,0.00,Wunderground v.1.13,2013-01-24 23:34:00,
2013-01-24 18:39:00,32.0,8.6,30.52,NNW,336,0.0,2.0,37,0.00,,,0.00,Wunderground v.1.13,2013-01-24 23:39:00,
2013-01-24 18:44:00,31.9,9.1,30.52,NNW,336,0.0,1.0,38,0.00,,,0.00,Wunderground v.1.13,2013-01-24 23:44:00,
2013-01-24 18:49:00,31.7,9.0,30.52,NNW,336,0.0,0.0,38,0.00,,,0.00,Wunderground v.1.13,2013-01-24 23:49:00,
2013-01-24 18:54:00,31.6,9.4,30.53,NNW,336,0.0,0.0,39,0.00,,,0.00,Wunderground v.1.13,2013-01-24 23:54:00,
2013-01-24 18:59:00,31.3,9.2,30.52,NNW,336,0.0,0.0,39,0.00,,,0.00,Wunderground v.1.13,2013-01-24 23:59:00,
2013-01-24 19:04:00,31.0,9.5,30.53,NNW,336,0.0,1.0,40,0.00,,,0.00,Wunderground v.1.13,2013-01-25 00:04:00,
2013-01-24 19:09:00,30.8,9.3,30.53,NNW,336,0.0,1.0,40,0.00,,,0.00,Wunderground v.1.13,2013-01-25 00:09:00,
2013-01-24 19:14:00,30.6,9.7,30.53,NNW,336,0.0,1.0,41,0.00,,,0.00,Wunderground v.1.13,2013-01-25 00:14:00,
2013-01-24 19:19:00,30.6,9.7,30.54,NNW,336,0.0,0.0,41,0.00,,,0.00,Wunderground v.1.13,2013-01-25 00:19:00,
2013-01-24 19:24:00,30.5,9.6,30.53,NNW,336,0.0,0.0,41,0.00,,,0.00,Wunderground v.1.13,2013-01-25 00:24:00,
2013-01-24 19:29:00,30.3,9.9,30.53,NNW,336,0.0,0.0,42,0.00,,,0.00,Wunderground v.1.13,2013-01-25 00:29:00,
2013-01-24 19:34:00,30.1,9.7,30.53,NNW,336,0.0,0.0,42,0.00,,,0.00,Wunderground v.1.13,2013-01-25 00:34:00,
2013-01-24 19:39:00,30.0,9.6,30.54,NNW,336,0.0,0.0,42,0.00,,,0.00,Wunderground v.1.13,2013-01-25 00:39:00,
2013-01-24 19:44:00,29.9,10.1,30.54,NNW,336,0.0,0.0,43,0.00,,,0.00,Wunderground v.1.13,2013-01-25 00:44:00,
2013-01-24 19:49:00,29.7,9.9,30.53,NNW,336,0.0,0.0,43,0.00,,,0.00,Wunderground v.1.13,2013-01-25 00:49:00,
2013-01-24 19:54:00,29.6,9.8,30.53,NNW,336,0.0,0.0,43,0.00,,,0.00,Wunderground v.1.13,2013-01-25 00:54:00,
2013-01-24 19:59:00,29.5,9.7,30.53,NNW,336,0.0,0.0,43,0.00,,,0.00,Wunderground v.1.13,2013-01-25 00:59:00,
2013-01-24 20:04:00,29.4,9.6,30.53,NNW,336,0.0,0.0,43,0.00,,,0.00,Wunderground v.1.13,2013-01-25 01:04:00,
2013-01-24 20:09:00,29.4,9.6,30.53,NNW,336,0.0,0.0,43,0.00,,,0.00,Wunderground v.1.13,2013-01-25 01:09:00,
2013-01-24 20:14:00,29.4,9.6,30.53,NNW,336,0.0,0.0,43,0.00,,,0.00,Wunderground v.1.13,2013-01-25 01:14:00,
2013-01-24 20:19:00,29.4,9.1,30.53,NNW,336,0.0,0.0,42,0.00,,,0.00,Wunderground v.1.13,2013-01-25 01:19:00,
2013-01-24 20:24:00,29.4,9.6,30.53,NNW,336,0.0,0.0,43,0.00,,,0.00,Wunderground v.1.13,2013-01-25 01:24:00,
2013-01-24 20:29:00,29.5,9.2,30.53,NNW,336,0.0,0.0,42,0.00,,,0.00,Wunderground v.1.13,2013-01-25 01:29:00,
2013-01-24 20:34:00,29.5,10.2,30.54,NNW,336,0.0,0.0,44,0.00,,,0.00,Wunderground v.1.13,2013-01-25 01:34:00,
2013-01-24 20:40:00,29.4,9.6,30.53,NNW,336,0.0,0.0,43,0.00,,,0.00,Wunderground v.1.13,2013-01-25 01:40:00,
2013-01-24 20:45:00,29.4,10.1,30.53,NNW,336,0.0,0.0,44,0.00,,,0.00,Wunderground v.1.13,2013-01-25 01:45:00,
2013-01-24 20:50:00,29.4,10.6,30.52,NNW,336,0.0,0.0,45,0.00,,,0.00,Wunderground v.1.13,2013-01-25 01:50:00,
2013-01-24 20:55:00,29.3,10.6,30.52,NNW,336,0.0,0.0,45,0.00,,,0.00,Wunderground v.1.13,2013-01-25 01:55:00,
2013-01-24 21:00:00,29.3,10.1,30.52,NNW,336,0.0,0.0,44,0.00,,,0.00,Wunderground v.1.13,2013-01-25 02:00:00,
2013-01-24 21:05:00,29.2,9.4,30.52,NNW,336,0.0,0.0,43,0.00,,,0.00,Wunderground v.1.13,2013-01-25 02:05:00,
2013-01-24 21:10:00,29.1,9.9,30.53,NNW,336,0.0,0.0,44,0.00,,,0.00,Wunderground v.1.13,2013-01-25 02:10:00,
2013-01-24 21:15:00,29.0,9.3,30.52,NNW,336,0.0,0.0,43,0.00,,,0.00,Wunderground v.1.13,2013-01-25 02:15:00,
2013-01-24 21:20:00,28.9,9.2,30.52,NNW,336,0.0,0.0,43,0.00,,,0.00,Wunderground v.1.13,2013-01-25 02:20:00,
2013-01-24 21:25:00,29.0,9.3,30.53,NNW,336,0.0,0.0,43,0.00,,,0.00,Wunderground v.1.13,2013-01-25 02:25:00,
2013-01-24 21:30:00,29.0,9.3,30.53,NNW,336,0.0,0.0,43,0.00,,,0.00,Wunderground v.1.13,2013-01-25 02:30:00,
2013-01-24 21:35:00,29.0,9.8,30.54,NNW,336,0.0,0.0,44,0.00,,,0.00,Wunderground v.1.13,2013-01-25 02:35:00,
2013-01-24 21:40:00,29.1,9.4,30.53,NNW,336,0.0,0.0,43,0.00,,,0.00,Wunderground v.1.13,2013-01-25 02:40:00,
2013-01-24 21:45:00,29.1,9.4,30.53,NNW,336,0.0,0.0,43,0.00,,,0.00,Wunderground v.1.13,2013-01-25 02:45:00,
2013-01-24 21:50:00,29.2,9.4,30.52,NNW,336,0.0,0.0,43,0.00,,,0.00,Wunderground v.1.13,2013-01-25 02:50:00,
2013-01-24 21:55:00,29.3,9.0,30.52,NNW,336,0.0,0.0,42,0.00,,,0.00,Wunderground v.1.13,2013-01-25 02:55:00,
2013-01-24 22:00:00,29.6,9.3,30.53,NNW,336,0.0,0.0,42,0.00,,,0.00,Wunderground v.1.13,2013-01-25 03:00:00,
2013-01-24 22:05:00,29.7,9.9,30.53,NNW,336,0.0,0.0,43,0.00,,,0.00,Wunderground v.1.13,2013-01-25 03:05:00,
2013-01-24 22:10:00,29.7,9.9,30.53,NNW,336,0.0,0.0,43,0.00,,,0.00,Wunderground v.1.13,2013-01-25 03:10:00,
2013-01-24 22:15:00,29.4,10.6,30.53,NNW,336,0.0,0.0,45,0.00,,,0.00,Wunderground v.1.13,2013-01-25 03:15:00,
2013-01-24 22:20:00,29.1,12.3,30.52,NNW,336,0.0,0.0,49,0.00,,,0.00,Wunderground v.1.13,2013-01-25 03:20:00,
2013-01-24 22:25:00,28.7,11.5,30.52,NNW,336,0.0,0.0,48,0.00,,,0.00,Wunderground v.1.13,2013-01-25 03:25:00,
2013-01-24 22:30:00,28.4,10.7,30.52,NNW,336,0.0,0.0,47,0.00,,,0.00,Wunderground v.1.13,2013-01-25 03:30:00,
2013-01-24 22:35:00,28.5,10.8,30.52,NNW,336,0.0,0.0,47,0.00,,,0.00,Wunderground v.1.13,2013-01-25 03:35:00,
2013-01-24 22:41:00,28.8,11.6,30.52,NNW,336,0.0,0.0,48,0.00,,,0.00,Wunderground v.1.13,2013-01-25 03:41:00,
2013-01-24 22:46:00,28.9,11.6,30.51,NNW,336,0.0,2.0,48,0.00,,,0.00,Wunderground v.1.13,2013-01-25 03:46:00,
2013-01-24 22:51:00,29.1,11.8,30.52,NNW,336,0.0,0.0,48,0.00,,,0.00,Wunderground v.1.13,2013-01-25 03:51:00,
2013-01-24 22:56:00,29.4,12.1,30.52,NNW,336,0.0,0.0,48,0.00,,,0.00,Wunderground v.1.13,2013-01-25 03:56:00,
2013-01-24 23:01:00,30.0,12.2,30.52,SSW,201,2.0,5.0,47,0.00,,,0.00,Wunderground v.1.13,2013-01-25 04:01:00,
2013-01-24 23:06:00,30.5,12.6,30.52,South,174,0.0,1.0,47,0.00,,,0.00,Wunderground v.1.13,2013-01-25 04:06:00,
2013-01-24 23:11:00,30.5,12.6,30.52,SW,219,0.0,1.0,47,0.00,,,0.00,Wunderground v.1.13,2013-01-25 04:11:00,
2013-01-24 23:16:00,30.8,12.4,30.53,South,185,0.0,0.0,46,0.00,,,0.00,Wunderground v.1.13,2013-01-25 04:16:00,
2013-01-24 23:21:00,31.2,12.3,30.53,SE,138,0.0,1.0,45,0.00,,,0.00,Wunderground v.1.13,2013-01-25 04:21:00,
2013-01-24 23:26:00,31.5,12.1,30.54,South,171,0.0,1.0,44,0.00,,,0.00,Wunderground v.1.13,2013-01-25 04:26:00,
2013-01-24 23:31:00,31.7,11.7,30.54,East,101,0.0,2.0,43,0.00,,,0.00,Wunderground v.1.13,2013-01-25 04:31:00,
2013-01-24 23:36:00,31.9,11.4,30.54,SSW,205,1.0,2.0,42,0.00,,,0.00,Wunderground v.1.13,2013-01-25 04:36:00,
2013-01-24 23:41:00,32.0,11.5,30.54,South,190,0.0,0.0,42,0.00,,,0.00,Wunderground v.1.13,2013-01-25 04:41:00,
2013-01-24 23:46:00,32.1,11.6,30.54,WSW,240,0.0,2.0,42,0.00,,,0.00,Wunderground v.1.13,2013-01-25 04:46:00,
2013-01-24 23:51:00,32.1,11.6,30.54,SW,217,0.0,5.0,42,0.00,,,0.00,Wunderground v.1.13,2013-01-25 04:51:00,
2013-01-24 23:56:00,32.1,11.6,30.54,SSE,167,0.0,4.0,42,0.00,,,0.00,Wunderground v.1.13,2013-01-25 04:56:00,